Theta_e
327 320 317 315 318 328 316 310 298 300 304 297 296 297 296 302 306 304 312 317 313 318 322 321 321 318 314 313 314 316 318 314 317 311 308 328 344 345 344 345 346 346 347 349 351 352 353 355 356 356 356 356 356 356 356 355 355 355 354 354 354 354 354 354 353 352 352 351 350 350 350 349 348 347 346 346 345 345 346 347 347 347 348 348 349 348 348 348 348 348 348 348 348 348 347 347 346
319 318 318 315 320 315 302 306 300 294 293 291 294 297 297 302 303 302 304 305 308 318 321 321 320 320 319 318 319 319 317 319 323 322 336 343 344 344 345 345 345 345 347 349 350 350 351 354 356 356 356 356 356 356 355 355 355 354 355 355 354 354 354 354 353 352 352 351 350 350 349 348 347 346 344 344 344 345 346 346 346 347 347 348 348 348 348 349 349 349 349 349 349 349 348 348 348
321 321 316 320 321 310 307 301 294 291 290 288 292 296 300 301 301 303 307 312 319 321 321 320 320 320 319 319 314 314 310 321 322 332 337 344 339 340 343 344 346 346 348 349 349 349 350 353 355 355 355 356 355 355 355 355 355 354 355 355 355 354 354 353 353 352 351 351 350 350 349 348 347 347 346 346 345 343 343 344 345 346 347 347 347 348 348 349 349 349 349 350 350 350 350 350 350
324 321 316 318 305 305 298 297 291 292 291 290 291 298 300 301 303 305 312 319 321 321 320 318 316 322 319 314 314 323 317 320 329 334 336 339 340 342 342 345 347 347 348 349 349 349 350 354 355 355 355 355 355 355 355 354 355 355 355 354 355 354 354 354 353 352 351 351 350 350 349 348 347 346 344 343 343 343 343 343 344 346 346 346 347 348 349 349 349 349 350 350 351 352 352 352 351
312 318 316 313 305 301 301 299 294 291 290 290 291 296 300 303 304 307 314 320 320 320 320 319 318 323 322 319 322 320 321 331 335 337 337 342 345 343 344 346 346 346 346 348 349 349 351 355 355 355 355 354 354 355 354 354 354 355 355 354 354 354 354 354 354 352 351 351 350 350 349 348 348 347 345 344 345 345 344 344 345 345 346 346 347 348 348 349 348 348 349 350 350 350 351 351 351
311 313 320 315 306 304 300 296 295 292 294 294 293 296 301 304 307 307 310 315 319 321 321 320 318 317 319 321 325 319 330 326 335 337 341 341 344 344 345 345 344 344 346 348 348 349 350 355 354 354 354 354 354 354 354 354 354 354 354 354 354 355 354 354 354 353 351 351 350 349 349 348 347 345 343 343 345 345 344 344 344 345 346 347 347 348 348 349 347 347 348 349 349 349 348 349 349
308 309 308 308 305 303 292 291 291 293 297 299 297 299 302 303 305 307 308 309 309 318 321 317 320 320 316 321 325 327 333 337 336 339 344 344 344 344 343 342 342 343 346 347 348 348 351 354 353 354 354 354 354 354 354 354 354 355 354 354 354 354 354 354 353 353 351 350 349 349 348 348 348 346 344 344 344 344 344 344 345 345 346 347 347 349 349 348 347 348 349 349 349 349 349 349 350
315 308 306 299 298 298 294 291 293 293 296 300 302 301 303 304 306 305 307 307 306 305 316 319 319 317 315 324 318 326 335 337 340 346 345 344 343 341 341 341 341 343 345 346 347 349 354 353 353 354 354 354 354 354 354 354 354 354 354 354 354 354 354 354 353 352 351 350 349 349 349 349 348 347 345 344 345 345 345 345 345 345 346 347 348 348 347 347 347 349 349 350 349 349 349 350 349
309 308 308 301 297 298 292 291 292 297 298 301 302 305 313 308 308 306 305 308 308 313 316 318 319 315 315 324 324 329 333 343 346 349 345 343 341 340 340 341 341 342 345 346 347 349 350 353 354 354 354 354 354 354 354 354 354 354 354 354 354 354 354 353 352 351 350 350 349 349 349 349 348 346 344 344 344 345 345 344 345 345 346 348 347 347 347 347 349 349 349 348 348 348 348 349 349
305 306 299 297 295 293 291 289 292 294 298 302 303 304 305 306 306 306 305 305 307 311 317 319 318 317 323 322 325 330 331 345 346 344 344 343 341 341 341 342 343 343 344 346 348 349 350 355 354 353 353 354 354 354 354 354 354 354 354 354 354 354 353 353 352 351 350 350 350 349 349 348 347 346 344 344 345 345 345 345 345 345 346 346 346 346 347 348 348 348 346 348 347 346 348 349 350
301 303 302 299 293 290 290 290 292 296 299 303 304 305 305 306 306 306 307 307 308 315 321 323 320 322 324 323 325 332 337 344 343 340 343 343 342 341 342 344 344 344 344 346 347 348 350 351 355 354 354 354 354 354 354 354 354 354 354 354 354 354 353 353 352 351 350 350 350 349 348 347 346 345 345 344 344 344 344 344 345 345 345 346 345 346 346 347 347 347 346 346 348 346 348 347 349
298 297 300 292 291 290 289 291 294 296 299 301 302 306 306 305 305 304 306 307 310 317 319 322 318 326 321 321 323 329 333 338 342 343 344 344 343 344 344 343 343 344 346 346 347 348 350 350 351 354 354 354 354 354 354 354 354 354 354 354 354 353 353 352 352 351 350 350 350 348 348 347 346 345 344 343 343 343 343 344 343 344 344 345 345 345 345 347 346 346 347 347 347 347 347 348 348
298 295 294 293 290 291 291 292 294 297 296 299 301 305 308 305 304 305 305 310 311 309 317 322 327 326 317 319 324 332 331 334 342 343 344 344 345 345 344 344 344 344 345 346 346 347 349 349 349 351 353 355 354 354 354 354 354 354 354 354 353 353 352 352 351 351 351 350 349 349 348 347 346 345 345 344 343 343 343 343 343 344 344 344 345 345 345 346 346 346 348 346 348 347 347 348 347
299 297 295 292 291 292 293 292 293 294 295 300 304 306 307 305 306 306 306 305 308 309 314 328 327 326 321 323 324 326 330 335 340 343 345 345 345 344 343 343 343 343 344 345 345 346 347 348 349 350 351 352 351 353 354 353 354 353 353 353 353 353 352 352 351 351 351 350 349 348 347 346 346 345 344 344 343 343 343 343 343 344 344 344 344 345 345 344 346 346 346 346 347 346 347 347 347
299 298 297 292 291 292 293 292 293 294 295 300 303 304 305 308 307 306 305 304 306 311 327 332 329 323 317 321 320 325 331 336 342 345 344 344 343 342 342 342 342 343 344 345 345 346 346 347 348 350 351 350 350 350 350 352 354 354 353 353 353 352 352 352 351 351 350 349 349 347 347 346 346 345 344 343 342 343 343 343 343 343 344 344 344 345 346 345 346 346 346 346 346 347 347 346 348
298 298 296 292 291 292 291 294 294 294 294 300 304 305 304 306 308 306 307 308 307 316 328 321 328 322 325 323 326 331 335 338 342 345 343 341 341 341 341 341 341 342 343 343 344 345 346 346 348 350 350 350 350 350 350 350 353 353 353 353 353 352 352 351 351 350 350 349 348 347 346 345 345 343 344 341 342 343 342 341 342 342 343 343 343 344 344 346 346 346 346 345 345 346 346 346 346
301 300 292 290 291 292 293 293 294 291 295 298 303 304 302 304 308 308 311 311 308 308 323 325 325 331 326 326 332 336 337 339 344 343 341 339 339 338 338 338 339 339 341 342 343 344 345 346 347 349 350 350 349 350 350 349 351 353 353 353 353 352 351 351 350 350 349 349 347 346 347 340 335 336 338 335 342 339 342 342 343 343 342 343 344 344 345 345 346 346 346 345 346 346 346 345 345
300 293 290 290 292 293 296 296 296 298 298 299 302 304 303 302 306 308 309 307 307 308 315 320 331 330 330 333 336 338 338 339 342 340 338 337 337 335 335 335 336 335 338 339 341 343 344 346 347 348 349 349 349 350 350 350 350 352 350 349 350 350 350 350 348 346 350 343 347 344 338 340 332 330 332 343 337 339 340 342 343 343 343 343 344 344 345 345 346 346 346 346 346 346 346 340 338
295 291 292 291 293 296 299 300 300 299 299 301 303 304 303 303 305 307 305 304 306 318 323 328 329 331 333 335 336 336 337 337 339 338 337 336 336 334 333 334 334 335 335 337 339 341 343 345 347 347 348 348 349 349 350 350 349 348 348 348 348 349 349 349 344 347 341 340 341 339 339 335 332 332 334 340 339 343 338 343 344 343 344 343 343 344 345 345 345 346 346 346 346 346 341 334 334
296 293 292 293 296 297 300 300 300 301 301 301 302 304 304 305 305 309 304 302 304 321 320 325 326 327 330 333 335 335 335 335 337 337 336 336 336 334 333 333 333 334 335 336 337 341 343 343 344 346 347 347 348 348 349 349 348 347 346 346 346 346 346 345 341 342 340 339 339 336 335 335 334 331 344 343 343 339 337 342 344 343 344 343 344 344 345 345 345 344 344 344 345 341 335 332 334
295 294 292 295 297 295 298 300 301 301 301 302 302 304 303 305 305 305 305 302 303 312 324 324 326 328 331 332 334 334 334 333 334 335 335 335 335 336 335 334 334 335 336 337 338 340 340 341 343 344 346 346 347 348 348 348 347 346 345 345 344 344 344 342 341 340 338 336 335 336 335 335 335 333 333 333 335 333 329 330 334 333 335 332 343 332 332 337 337 333 332 333 329 330 331 331 333
295 294 297 296 296 296 298 300 302 302 302 301 301 300 302 306 305 305 304 301 299 303 317 328 331 332 332 332 333 333 333 333 333 333 333 333 333 333 334 334 336 336 337 336 337 339 339 341 342 344 344 345 346 347 347 348 347 345 345 345 344 343 342 341 339 338 335 334 333 334 337 335 335 333 332 331 333 332 332 331 332 329 330 330 335 331 333 334 334 332 330 329 328 331 331 332 333
291 294 295 297 297 296 299 301 301 301 301 300 300 302 304 303 302 304 304 303 302 307 316 329 333 333 334 334 334 332 332 332 333 332 333 333 333 333 333 334 334 334 336 335 338 339 339 340 342 343 343 345 345 347 347 347 345 346 345 345 343 341 341 339 338 337 336 332 331 335 335 334 334 333 333 332 331 332 332 332 332 332 331 329 331 331 331 332 331 331 333 332 334 336 338 336 335
295 292 294 296 298 297 299 299 300 301 301 301 303 304 302 303 300 304 303 305 306 307 320 331 333 334 335 333 333 332 333 333 333 334 334 334 334 334 334 334 335 335 335 335 337 338 339 339 341 342 343 344 345 346 345 345 344 344 344 346 343 343 341 339 339 338 337 334 331 333 339 335 334 334 334 332 331 332 332 331 331 330 331 330 331 333 331 330 332 335 336 336 336 336 336 335 334
296 294 295 296 296 297 299 300 299 298 299 302 303 301 301 303 302 303 302 304 306 323 326 332 333 333 334 333 332 332 333 333 333 334 335 335 335 335 335 335 335 335 334 335 336 337 337 339 340 340 343 344 345 345 344 344 343 343 343 343 342 345 341 340 339 339 337 335 332 333 338 332 329 332 333 333 331 331 330 330 330 329 328 328 330 331 332 333 334 336 335 335 334 334 333 333 333
298 298 297 296 296 297 298 298 300 300 301 300 298 299 302 304 305 302 304 305 307 320 331 331 331 331 331 332 332 332 333 333 334 333 334 335 335 334 333 333 334 334 334 335 335 336 337 338 339 340 342 343 345 345 344 343 343 342 342 342 342 344 341 340 339 338 337 335 333 334 336 333 331 328 330 332 332 329 328 326 329 326 328 333 338 336 337 337 334 334 337 338 338 336 333 332 328
299 298 298 296 296 296 297 297 299 300 300 300 298 298 299 303 301 298 305 306 306 325 330 330 330 330 332 332 332 332 332 333 333 335 334 334 334 333 333 332 333 334 335 334 335 336 337 338 339 340 342 344 345 344 343 342 343 342 342 342 341 342 341 340 339 337 335 335 336 334 334 334 335 335 331 332 332 330 326 326 332 336 334 334 334 336 338 337 337 335 339 337 335 332 331 330 329
298 297 297 297 298 299 297 296 297 299 298 300 299 298 300 300 300 300 303 306 306 320 328 329 329 329 330 331 331 332 332 334 335 334 332 332 333 333 333 331 332 333 334 334 335 336 336 337 339 340 341 343 344 344 343 342 342 342 342 342 341 342 340 339 337 335 335 335 336 333 333 334 338 337 337 335 336 335 333 334 334 333 333 336 338 338 337 338 338 339 339 338 336 332 327 326 327
296 297 292 295 296 295 297 296 296 298 297 301 300 297 296 297 297 302 304 305 304 308 326 327 328 328 329 329 330 331 332 333 334 334 334 334 335 335 333 333 333 333 335 336 336 336 336 337 338 339 340 342 343 343 343 342 342 343 342 341 341 342 340 338 335 334 333 334 336 334 334 335 339 336 335 336 337 334 334 335 335 336 335 337 338 339 339 338 338 337 335 335 333 328 327 327 329
297 297 294 293 293 292 297 297 296 296 297 300 300 289 292 296 299 302 304 304 302 302 306 324 326 327 327 328 329 330 331 333 333 334 334 335 334 334 333 333 334 334 334 336 336 335 337 338 339 338 339 339 342 343 343 341 342 342 342 341 341 340 339 337 336 334 334 334 335 335 336 338 339 336 334 333 334 334 336 337 337 336 337 337 338 338 336 337 336 337 335 329 334 327 326 327 327
292 294 295 288 287 288 295 296 295 294 297 297 299 289 292 297 299 302 304 303 302 301 302 310 324 324 326 328 329 329 331 334 334 334 335 335 334 334 333 333 334 335 335 336 335 336 338 337 338 338 339 338 342 341 342 341 342 342 341 340 339 339 338 336 335 335 334 334 334 334 338 340 337 335 334 334 334 337 337 336 336 337 337 337 336 337 338 336 336 335 330 327 325 325 326 328 325
291 289 287 289 287 289 292 295 295 292 296 298 296 290 292 296 299 302 303 305 303 301 302 303 315 318 325 328 329 330 330 333 334 334 335 335 334 333 332 333 334 335 335 336 336 337 337 337 339 337 339 338 340 341 341 341 342 341 340 343 339 338 337 336 336 336 337 336 335 336 338 338 335 334 334 335 336 336 336 336 336 336 338 336 334 338 339 334 336 331 330 325 323 324 326 325 324
289 287 286 287 288 288 291 295 295 295 295 296 296 291 293 295 299 301 304 304 303 301 302 300 307 315 324 329 330 330 330 331 334 335 335 335 334 334 333 334 334 335 336 336 336 336 337 338 339 338 338 338 339 340 341 341 341 340 339 340 338 337 336 336 336 337 338 337 336 338 337 337 334 335 335 336 336 336 336 335 335 336 337 335 334 335 335 336 336 330 327 326 324 323 325 323 321
282 287 284 289 286 287 287 292 295 294 294 293 296 293 292 293 296 298 302 303 303 301 301 302 310 314 324 329 330 330 330 331 333 334 335 334 334 335 335 336 335 336 337 337 337 337 337 338 338 338 338 339 339 339 340 340 339 339 339 338 339 337 336 336 336 337 337 337 337 336 335 335 335 335 335 335 335 336 336 335 334 335 335 334 335 335 334 335 332 328 324 324 324 325 324 322 320
281 283 284 285 289 290 288 288 292 294 294 292 293 293 293 293 293 296 301 303 302 301 302 302 310 321 324 328 330 330 330 331 333 335 336 335 334 335 335 335 335 336 337 337 337 338 338 338 338 338 338 338 338 339 339 339 339 338 338 338 337 336 335 335 336 335 336 337 336 335 335 335 336 334 335 336 336 336 334 332 333 333 334 333 332 333 333 332 331 328 324 323 325 325 324 323 320
284 287 286 286 286 288 288 292 295 293 291 291 292 291 293 294 295 296 296 300 301 301 302 302 303 321 325 328 329 329 330 331 335 336 336 335 336 336 335 336 336 336 336 337 337 337 337 337 337 337 337 338 338 338 338 337 337 336 335 336 335 334 333 335 334 336 336 335 336 336 335 335 335 335 335 335 336 334 332 332 333 334 334 334 332 332 329 329 328 325 322 322 322 324 325 323 316
287 287 286 286 288 289 292 293 295 297 292 291 292 292 292 293 295 297 299 296 297 299 300 300 300 318 324 327 328 329 330 330 334 336 336 335 336 336 336 336 335 335 336 337 337 337 337 337 336 335 336 337 337 337 336 336 335 335 335 335 334 332 333 333 334 334 335 335 336 336 336 335 334 335 335 334 333 336 332 332 334 334 333 334 332 330 330 331 329 327 324 322 321 320 320 321 315
286 285 285 284 287 286 292 293 295 297 292 290 291 292 292 294 295 297 299 298 296 297 298 299 300 311 324 326 327 329 330 332 333 334 335 335 335 335 336 335 335 334 335 336 336 336 337 337 336 335 336 336 337 337 336 336 336 336 335 334 333 331 333 332 331 332 334 335 335 335 335 335 334 334 334 333 333 332 331 332 332 331 332 331 332 331 331 334 328 328 323 317 318 317 316 318 317
285 283 283 283 284 288 291 292 295 296 294 290 289 290 292 294 295 297 298 298 299 298 298 300 300 299 313 323 327 329 330 330 332 334 335 334 334 335 335 335 335 335 335 336 336 336 336 336 335 336 336 336 336 337 336 336 335 336 335 333 333 332 331 332 333 333 334 333 333 334 335 334 333 332 333 334 332 331 331 332 332 332 331 333 328 326 326 325 326 327 320 316 314 316 315 316 318
283 283 281 280 285 285 283 290 293 295 293 291 290 288 290 294 295 295 297 299 300 301 300 300 301 301 302 317 326 328 329 330 330 332 333 333 333 334 335 334 334 335 335 335 336 335 336 336 334 335 336 336 336 337 337 336 336 336 335 334 334 333 330 333 332 332 332 333 332 333 332 333 333 332 333 332 332 331 331 332 332 331 332 331 326 324 324 323 323 325 320 317 315 311 309 310 316
283 284 283 283 284 286 286 287 291 293 294 294 291 288 287 291 292 294 296 298 300 301 301 300 300 301 302 311 327 330 329 330 330 332 333 332 332 333 334 334 335 334 335 335 335 335 336 335 334 336 335 336 336 337 337 336 336 333 333 333 333 333 332 330 330 330 331 333 333 332 333 333 333 332 332 332 333 331 330 330 330 328 328 328 325 322 321 321 321 322 322 317 313 310 308 307 312
281 284 285 285 286 286 287 290 289 286 286 292 290 281 284 289 291 293 296 295 296 299 299 299 300 299 299 305 322 329 331 332 331 332 332 332 332 333 334 334 334 334 334 335 335 336 335 334 334 335 335 336 336 337 336 336 334 332 331 330 329 329 328 327 328 329 331 331 331 332 333 333 333 331 331 332 332 332 330 328 326 325 324 323 322 320 319 319 318 318 319 318 313 310 309 307 308
279 280 287 287 287 287 286 287 287 281 280 288 292 283 276 283 288 291 294 295 295 297 298 299 300 300 299 302 319 328 330 330 332 333 333 332 332 332 333 333 334 333 334 335 335 335 334 333 333 335 335 336 337 336 336 336 333 332 332 331 331 329 328 327 327 332 332 330 331 332 332 330 331 331 331 331 331 330 328 326 323 323 322 321 322 319 318 318 318 317 318 316 312 313 311 308 309
279 285 286 288 287 286 286 286 285 284 289 291 291 289 282 281 288 292 294 294 294 295 297 298 299 300 299 301 313 327 330 331 331 332 332 333 332 332 332 333 334 334 334 334 334 334 333 332 332 335 335 336 337 336 336 335 333 332 331 330 329 328 328 328 330 331 330 331 331 330 330 329 330 330 331 330 328 328 326 323 323 321 320 320 321 318 318 317 318 318 317 317 314 311 310 310 309
282 286 287 286 287 287 287 286 284 285 284 282 287 290 283 283 287 292 294 292 293 294 296 297 299 300 299 301 309 326 330 331 331 332 332 332 332 332 333 333 334 334 334 333 333 333 333 332 332 334 334 335 336 336 335 334 334 332 331 329 328 328 328 329 330 330 329 330 328 327 328 327 327 327 328 327 325 324 324 321 320 319 318 318 320 318 317 316 315 314 314 314 313 313 312 311 309
285 288 288 288 288 288 288 286 284 284 281 278 284 288 280 282 286 288 292 292 292 294 296 297 298 299 300 300 310 325 330 330 332 333 333 333 333 333 334 335 334 334 334 334 333 333 333 332 331 333 333 335 336 335 335 333 333 332 329 329 328 328 329 329 329 328 327 327 326 324 324 324 325 325 324 323 321 321 320 320 319 318 318 318 319 316 316 315 314 313 313 313 314 312 310 310 309
288 287 285 285 285 285 287 286 284 281 276 280 285 288 285 277 283 289 289 291 294 295 296 297 298 299 300 300 314 325 329 330 331 332 333 333 333 334 334 333 333 333 333 333 332 333 332 332 331 332 333 334 335 334 334 333 332 331 330 330 329 328 328 329 329 327 326 325 324 323 323 322 322 322 322 320 319 318 318 319 317 317 319 320 318 316 315 315 313 313 313 313 312 311 310 309 309
287 284 282 282 282 284 283 282 284 276 275 282 286 287 287 278 283 289 294 295 296 296 295 296 296 298 300 300 316 325 329 330 331 331 331 331 332 333 333 332 332 332 332 332 331 332 332 332 331 331 332 333 334 334 334 333 332 331 331 330 329 329 329 329 329 327 327 325 324 323 322 322 321 320 319 318 318 318 318 317 318 316 316 315 315 316 315 314 314 314 313 313 312 311 310 309 307
286 284 282 277 274 276 272 278 275 276 276 283 287 287 284 284 287 289 293 295 297 298 298 298 298 299 300 302 316 326 329 329 330 331 330 331 332 331 331 331 331 331 331 331 331 331 331 331 331 331 331 332 333 334 333 333 331 330 330 330 330 330 329 329 328 327 326 325 324 322 322 321 319 318 317 317 317 317 317 314 314 314 314 316 317 317 316 315 314 312 312 312 310 308 307 307 306
283 281 280 277 272 271 270 274 277 278 282 286 285 288 283 288 288 293 294 295 298 299 300 300 300 300 301 304 317 326 328 329 330 330 330 331 332 332 331 331 331 331 331 331 331 331 331 331 331 331 331 332 333 333 333 332 331 330 330 330 330 330 328 328 328 327 326 326 325 323 322 321 319 318 317 317 318 317 316 316 314 314 315 316 316 315 315 314 313 312 311 310 309 307 307 306 305
283 286 283 280 278 275 271 274 272 275 277 283 288 283 279 282 284 294 296 297 298 300 301 301 301 301 302 309 319 325 327 328 330 330 330 331 332 332 331 331 331 331 331 331 331 331 331 331 331 330 330 332 333 333 332 331 330 329 330 330 330 329 328 328 327 327 326 325 324 323 322 321 319 318 317 317 317 315 314 313 314 314 314 315 315 315 316 314 314 312 311 310 308 307 306 306 304
286 287 288 282 279 283 275 276 278 278 277 278 282 281 283 287 292 296 298 299 298 300 300 301 300 301 303 312 319 324 326 328 329 329 330 331 332 332 331 331 331 331 331 331 331 332 331 331 331 331 331 332 333 332 331 331 329 329 329 329 329 328 328 327 326 326 326 325 324 323 321 320 318 317 317 316 315 314 313 314 314 315 315 315 315 314 314 313 312 310 309 309 308 309 305 305 304
283 285 281 284 289 286 279 280 282 277 278 278 279 285 288 292 290 295 296 297 298 298 299 299 299 301 307 315 320 323 326 327 328 329 330 331 332 332 332 332 332 331 331 331 332 332 332 331 331 331 331 332 332 332 331 330 329 328 327 328 328 327 326 326 326 325 325 324 323 322 321 319 318 317 316 316 314 314 314 314 314 314 314 314 314 314 313 312 311 310 308 308 307 306 306 303 303
287 280 284 291 293 290 282 274 277 278 275 277 282 280 281 284 280 292 295 295 296 297 297 298 299 301 310 316 321 324 325 327 328 329 331 332 332 332 332 332 332 332 332 332 332 333 333 332 332 332 331 331 331 331 331 330 328 328 327 327 327 327 326 326 326 325 325 324 323 323 321 318 317 317 316 316 314 313 314 317 314 314 313 313 313 312 312 311 310 309 308 307 306 306 305 305 305
286 286 295 284 278 278 282 280 275 276 276 273 280 283 283 285 284 288 291 293 294 295 296 297 298 302 310 317 321 324 326 327 327 328 330 331 331 332 332 332 332 332 332 333 333 333 333 332 332 333 332 332 331 331 331 330 329 329 328 327 327 326 326 326 326 325 325 324 323 322 320 318 317 316 316 315 313 313 313 313 314 313 312 312 312 311 311 310 309 308 307 306 306 305 304 303 303
291 291 288 295 288 283 279 282 283 283 277 276 276 281 280 287 288 290 292 293 294 294 294 296 298 303 310 316 321 323 324 326 327 328 329 330 331 332 332 332 331 331 332 332 332 332 331 332 332 332 333 333 331 331 331 330 330 329 328 327 326 326 326 326 325 324 324 324 323 322 319 317 316 316 314 314 313 312 312 313 313 312 311 311 311 311 310 309 308 307 306 305 305 304 304 303 303
285 285 285 288 288 289 287 288 284 280 275 275 274 275 280 285 291 293 294 294 295 295 295 297 300 305 312 317 321 323 325 325 327 328 329 330 331 331 332 332 332 332 332 332 332 332 332 332 331 332 332 332 331 331 332 331 331 329 328 327 327 326 325 324 324 323 324 323 322 321 319 317 316 314 314 313 312 312 312 313 312 312 311 310 309 309 309 308 307 306 305 305 304 304 303 302 303
288 287 285 286 283 281 278 278 288 286 282 277 275 275 278 288 295 296 295 296 297 296 297 298 301 307 313 318 321 323 324 326 327 328 329 330 330 331 331 331 332 332 331 331 332 332 331 331 331 331 333 332 331 331 331 331 331 330 328 328 327 327 325 324 322 322 322 321 320 319 317 316 314 313 313 312 311 311 311 312 312 311 310 310 310 309 308 307 306 305 305 306 304 303 302 301 301
Wind_Speed
11 9 10 7 2 3 2 1 1 3 2 2 2 2 2 3 1 6 12 11 7 2 1 10 13 12 7 7 14 12 15 16 7 9 9 2 4 11 14 15 15 15 14 11 10 11 12 15 17 18 18 20 20 19 19 19 19 18 18 18 18 17 17 16 16 15 14 14 13 13 12 13 12 11 11 11 11 10 9 9 8 8 8 8 8 9 9 9 10 10 10 9 8 7 6 5 4
6 4 8 5 3 1 1 1 2 3 3 4 5 0 5 3 4 1 9 9 4 5 8 12 10 2 6 12 11 15 6 11 14 5 2 3 9 6 14 17 17 18 13 11 10 10 10 13 17 17 19 20 20 20 19 19 19 19 19 18 18 18 17 16 15 15 14 13 13 13 12 12 11 11 10 10 10 10 9 8 7 8 7 7 7 8 8 8 9 9 9 8 7 6 5 4 4
8 3 5 1 2 2 0 2 0 1 2 4 6 3 3 6 5 4 1 8 12 11 12 8 3 7 11 11 12 16 8 9 13 3 3 6 13 3 8 13 16 18 17 12 10 10 9 12 16 17 19 20 20 20 19 19 19 19 19 18 18 18 17 16 16 15 14 13 13 12 12 11 11 11 11 10 10 9 8 8 7 7 7 7 7 7 7 7 8 8 8 8 7 7 6 6 6
5 3 2 1 2 3 1 1 3 2 2 6 6 6 1 3 7 7 11 12 14 17 8 7 4 3 18 7 9 3 6 6 11 9 4 10 7 12 9 13 14 12 12 11 11 10 9 14 17 17 19 19 19 19 19 20 19 19 19 19 18 18 16 16 15 14 14 14 13 12 12 11 11 11 10 10 8 9 9 9 8 7 7 6 6 7 7 7 8 8 8 8 8 8 7 7 8
5 2 5 1 2 1 1 1 2 3 3 3 4 6 5 5 7 2 12 9 14 12 11 9 6 1 5 13 7 5 11 5 8 9 5 4 12 14 13 13 14 14 11 12 12 11 11 18 17 17 18 20 19 18 19 19 19 19 18 18 18 17 16 16 15 14 14 14 13 12 11 11 11 10 10 9 8 9 10 9 9 8 6 6 6 6 6 6 7 7 8 8 8 8 8 8 8
6 2 3 1 0 3 2 1 1 2 7 2 2 5 9 1 1 3 1 19 8 7 13 16 15 10 5 3 3 1 7 9 10 5 9 7 15 16 15 14 13 13 12 10 11 10 11 19 17 17 17 18 19 19 19 19 19 19 18 18 18 17 17 17 15 15 15 14 13 12 12 12 11 10 9 9 9 10 10 10 9 8 7 6 5 5 5 5 6 7 7 8 8 8 8 8 8
3 4 1 2 2 2 3 2 5 4 8 4 4 6 13 2 3 5 2 2 10 10 7 5 7 15 6 1 3 2 2 2 7 6 10 15 16 17 17 13 13 13 12 10 9 10 14 18 18 17 18 18 19 19 18 18 18 18 18 18 18 17 17 16 16 15 15 14 13 12 12 12 10 10 9 8 8 9 10 10 10 9 7 6 5 5 5 5 6 7 7 7 8 8 8 8 9
2 1 0 3 1 1 1 3 5 4 6 4 6 7 11 5 9 5 2 5 2 8 3 7 3 9 1 2 5 2 4 3 9 15 17 16 17 17 16 15 13 12 12 10 9 9 17 18 18 17 18 18 19 19 18 18 18 17 18 18 18 17 17 16 15 14 14 13 13 13 13 12 11 10 9 8 8 9 9 10 10 9 8 7 6 6 5 6 6 6 7 7 8 8 8 9 9
2 1 1 3 1 0 1 4 6 3 5 7 12 9 9 8 9 8 7 4 1 12 11 7 10 12 2 5 3 1 4 11 13 19 18 19 18 17 12 15 15 13 11 10 9 10 12 17 17 17 18 18 19 19 18 18 17 17 18 17 17 15 16 16 16 15 14 13 13 13 13 12 11 9 9 8 8 8 8 9 9 9 9 8 5 5 5 5 6 6 6 7 7 8 8 9 9
0 1 1 2 3 6 3 4 2 5 3 6 11 12 8 7 9 7 8 6 2 6 7 8 6 13 9 10 5 1 7 15 15 14 15 16 18 15 12 14 16 18 14 11 9 9 10 19 17 17 17 17 17 17 17 16 16 16 16 16 16 15 15 15 13 13 14 13 13 12 12 11 11 10 8 8 7 7 7 7 8 8 8 6 5 4 5 6 6 6 7 7 7 7 8 8 8
0 1 2 2 2 4 6 4 4 6 6 7 12 10 9 7 7 10 8 7 4 11 1 6 6 13 9 2 0 1 12 17 19 16 14 16 15 14 13 12 14 17 16 13 10 9 10 12 19 16 16 16 16 15 15 14 15 14 14 14 15 16 16 14 13 14 14 14 13 12 11 11 11 10 9 8 7 7 6 6 7 7 7 5 4 4 4 5 6 6 6 6 7 7 7 8 9
0 1 1 5 5 6 5 3 4 6 7 8 12 13 4 5 4 5 4 5 3 12 13 7 4 8 7 5 1 3 10 13 16 17 16 14 12 13 14 11 12 12 16 14 12 10 10 10 11 16 18 16 15 14 13 14 14 13 14 14 14 15 14 13 13 13 14 13 13 12 12 11 11 11 10 9 8 7 7 6 6 5 4 4 3 3 4 4 5 6 6 6 7 7 8 9 9
3 2 3 2 4 3 3 4 6 5 5 9 11 11 6 3 5 8 3 7 14 6 8 11 13 9 4 3 2 2 10 11 15 16 15 12 13 12 12 12 13 13 13 13 12 10 11 9 9 10 13 18 16 15 13 13 13 13 13 14 14 14 15 14 14 14 14 13 13 12 11 11 11 11 10 9 8 7 7 7 5 4 3 3 3 3 2 4 4 6 5 6 6 7 8 8 9
4 5 6 6 2 5 6 5 3 5 8 7 9 12 11 5 3 6 5 7 12 17 10 10 14 8 6 4 1 3 5 8 13 14 13 15 13 13 13 12 13 13 13 13 13 11 10 10 9 9 11 11 9 14 15 16 14 14 13 13 13 14 14 14 13 14 13 13 13 13 12 11 11 10 10 9 9 8 7 7 6 4 3 3 2 1 2 3 4 6 6 6 7 8 8 8 9
6 1 2 3 3 5 5 7 8 7 10 7 8 9 9 9 5 6 4 3 9 3 12 12 10 13 7 10 4 8 8 11 14 14 14 14 14 13 13 11 12 12 11 11 12 12 11 10 9 8 7 8 9 7 7 12 16 15 14 15 14 14 14 14 14 14 14 13 13 12 11 11 10 10 10 9 8 8 7 6 5 4 3 2 2 1 2 3 5 6 7 7 8 9 9 10 10
3 2 2 3 7 8 4 7 5 7 8 7 11 13 11 13 14 6 8 7 4 4 15 2 4 3 15 16 18 15 14 15 16 16 16 16 14 11 12 11 11 10 10 10 10 9 10 10 9 8 8 8 7 7 7 8 14 16 16 16 16 15 16 15 14 14 14 13 13 12 11 8 8 7 10 7 9 8 7 5 5 3 2 2 0 1 2 4 5 6 7 8 8 8 8 9 9
1 1 4 4 11 10 5 6 7 8 3 5 8 9 8 9 7 3 4 5 11 3 8 18 12 4 18 8 17 18 17 16 17 19 17 13 12 10 8 8 9 8 7 9 9 8 8 9 10 8 9 10 9 8 7 7 11 16 15 17 17 17 15 15 14 14 13 11 10 10 9 4 4 3 4 3 8 4 7 7 5 4 3 1 2 2 4 4 6 7 7 8 7 7 7 9 9
1 4 6 10 8 12 7 10 7 1 5 4 8 9 8 11 9 1 6 5 8 2 11 2 11 6 6 7 16 18 17 20 19 19 15 13 11 11 9 9 10 10 9 9 8 9 8 8 9 10 9 11 9 7 6 6 8 11 8 10 10 11 13 13 11 6 9 4 9 6 4 3 3 3 3 6 2 3 5 7 6 5 4 2 3 4 4 5 6 8 9 9 10 8 8 5 5
5 3 6 14 9 7 7 7 8 5 7 7 10 11 8 11 11 5 6 7 3 11 3 14 11 11 10 14 15 17 18 17 18 19 20 18 15 16 13 10 10 11 10 9 8 10 9 8 9 10 10 10 11 8 6 6 7 6 7 7 7 10 8 9 5 6 4 4 4 4 4 3 3 3 3 3 3 5 4 7 6 5 4 4 4 4 5 6 7 8 9 9 10 10 6 5 5
6 6 11 12 5 5 9 7 8 9 5 7 11 14 11 11 11 0 4 3 6 3 8 4 15 12 16 12 13 16 18 18 19 21 20 18 16 16 14 13 11 12 12 10 10 8 9 8 9 9 10 10 9 7 7 6 6 6 6 6 6 6 6 5 4 4 4 4 4 4 4 3 3 3 6 10 8 4 4 7 6 5 4 4 4 3 4 5 7 8 8 10 8 5 5 6 5
2 5 9 9 6 5 7 6 8 6 6 7 11 12 16 13 8 6 1 6 4 5 7 14 12 18 18 20 17 16 14 13 11 11 13 14 13 12 15 15 14 12 11 10 9 10 10 9 8 8 9 9 8 7 8 7 7 6 6 6 5 5 4 5 4 4 4 4 4 5 4 3 3 4 3 3 4 3 3 3 2 2 1 1 2 2 2 4 4 5 4 5 5 5 5 5 4
2 9 12 5 5 10 5 9 9 8 8 7 8 11 17 10 6 6 5 5 7 5 8 12 21 22 24 22 19 13 13 13 11 13 12 12 13 11 8 7 7 9 10 11 11 11 11 11 10 9 9 9 9 8 8 8 9 7 6 6 6 4 5 5 5 5 5 5 4 4 4 4 4 5 3 3 4 5 4 5 4 3 2 2 0 1 2 3 4 4 5 5 6 5 5 5 4
8 6 7 9 5 3 5 7 7 8 6 8 9 12 11 14 7 7 8 12 4 4 8 12 22 23 20 18 15 14 13 14 13 14 14 14 12 12 13 11 12 11 10 10 11 10 11 10 10 9 9 9 10 9 7 7 7 7 6 6 6 6 5 5 6 5 5 5 4 4 5 5 5 5 5 5 5 5 5 5 5 4 4 3 1 1 2 3 3 5 5 5 5 5 5 4 4
7 10 4 9 8 10 5 4 7 9 14 14 10 8 9 16 15 9 4 9 7 3 6 11 10 15 16 17 18 20 18 17 14 14 14 15 16 16 15 15 11 10 10 11 10 11 10 12 11 10 10 10 9 9 9 8 7 7 6 7 7 7 6 6 6 6 5 5 5 6 5 6 6 6 6 6 6 5 5 4 3 4 3 3 1 2 1 2 4 5 5 6 5 5 4 3 3
9 11 8 6 4 7 9 10 8 6 7 10 11 15 16 17 16 8 5 6 6 4 5 12 5 13 18 22 21 19 17 13 13 12 8 8 10 11 10 10 11 11 11 12 10 11 12 11 11 12 11 11 9 9 9 7 7 7 6 6 7 7 6 6 6 5 5 5 5 5 5 5 5 6 6 6 5 5 4 5 5 3 2 1 1 2 2 2 4 6 6 6 5 5 4 4 2
3 5 5 6 6 4 7 10 14 15 9 5 5 12 17 19 17 14 14 11 9 6 15 13 16 14 14 17 19 18 21 23 19 16 15 11 11 12 11 12 12 13 13 13 12 11 11 11 12 12 12 11 10 10 8 8 8 8 8 7 7 7 6 7 5 5 5 5 5 5 6 6 7 6 5 4 5 5 5 3 3 4 5 5 6 5 4 4 4 5 7 6 5 5 2 4 7
9 8 5 5 6 7 6 12 13 15 12 9 10 13 13 12 8 9 14 15 5 13 15 17 14 17 16 15 17 20 22 20 22 17 13 11 12 13 13 11 14 13 13 14 12 11 11 12 12 12 11 10 10 10 9 8 8 8 8 7 6 7 7 6 6 5 5 6 6 6 6 5 5 5 5 5 3 5 5 5 5 4 3 2 3 5 4 1 3 3 7 6 4 3 2 3 7
5 7 8 5 7 10 9 8 13 11 12 15 13 13 11 9 5 15 17 11 4 11 16 17 18 13 13 16 17 12 15 17 13 14 19 16 14 14 15 13 14 14 15 14 12 11 12 13 13 12 12 10 11 10 9 9 9 9 8 7 7 7 6 6 6 6 6 7 6 6 5 5 4 3 4 6 7 5 5 5 4 4 4 3 3 5 7 6 4 3 6 5 1 2 6 6 6
5 6 5 6 8 9 6 10 9 9 12 13 8 9 13 11 15 19 21 12 5 7 12 16 20 17 16 13 9 9 11 13 15 15 19 20 17 16 19 15 15 15 11 15 14 13 15 14 12 12 12 11 11 10 10 9 8 8 8 7 7 6 6 6 6 6 7 6 6 5 5 5 3 6 6 6 5 5 6 6 5 5 5 4 2 5 6 5 3 5 1 1 5 6 8 7 7
6 1 2 4 8 10 12 5 8 8 7 10 8 12 14 19 21 19 18 15 5 3 11 11 10 14 14 14 13 10 7 10 15 18 15 13 16 16 18 16 16 15 13 12 15 15 13 10 10 9 11 11 11 10 9 9 8 8 8 7 7 7 6 6 7 7 6 6 5 5 5 4 6 6 5 4 6 6 5 6 5 5 5 5 5 4 3 1 4 5 3 5 6 6 7 7 8
0 4 1 3 5 10 4 4 6 12 6 7 10 14 16 17 19 20 18 12 7 8 4 14 14 11 13 14 13 13 14 16 18 14 11 11 10 10 12 13 16 14 12 13 17 17 15 13 10 9 11 10 12 11 11 10 8 8 8 7 7 7 7 7 7 6 6 6 6 6 4 5 6 5 6 7 6 6 6 5 5 6 5 5 4 3 0 2 1 5 5 7 7 7 6 6 9
2 0 9 3 8 3 4 5 7 12 5 9 9 14 17 16 18 18 11 5 10 12 8 9 12 12 10 11 13 13 13 10 7 9 11 11 11 11 12 12 14 16 17 16 16 15 15 14 11 11 10 11 11 11 10 10 9 8 7 8 7 7 7 7 7 6 6 6 5 5 5 5 5 6 5 6 7 6 7 7 6 5 6 5 3 1 1 2 3 5 4 7 8 7 9 7 8
2 5 4 9 6 5 5 11 6 9 4 7 16 15 11 14 15 15 6 8 8 11 14 5 12 14 12 11 11 12 10 6 6 9 11 13 12 14 14 14 15 16 16 18 17 16 15 14 13 12 10 11 11 11 10 9 8 8 7 8 8 7 7 7 6 5 5 6 5 6 5 5 4 5 5 5 7 6 6 6 6 5 5 5 2 1 2 2 5 6 6 6 8 8 9 9 8
5 2 5 1 3 3 9 4 6 5 10 11 18 16 9 1 6 7 8 11 11 12 15 8 12 10 14 14 12 10 12 12 13 13 13 13 12 14 14 14 14 15 15 17 18 17 16 14 12 11 10 10 10 10 10 8 8 8 7 7 7 7 6 6 6 5 6 6 6 5 5 5 4 4 4 4 5 5 5 6 5 4 4 4 3 1 1 2 5 7 7 5 7 8 8 9 9
7 2 1 2 4 7 7 7 4 7 10 16 14 17 14 5 4 7 12 13 17 17 15 15 10 12 12 13 13 14 14 14 16 15 15 13 11 12 13 14 13 14 13 15 15 14 13 12 11 10 10 10 10 10 9 8 8 7 7 7 7 6 5 6 6 6 6 5 5 5 5 5 5 3 4 4 5 5 4 4 5 4 3 3 2 2 2 3 5 6 8 7 6 6 8 8 9
2 1 2 4 6 10 10 6 9 5 9 13 17 16 14 13 8 8 5 8 15 18 14 13 7 12 14 14 14 14 14 16 14 12 13 11 11 12 12 12 12 13 13 13 14 14 14 12 10 9 9 10 9 9 8 7 7 7 8 6 6 6 5 5 3 6 5 6 6 6 5 5 5 5 5 5 5 5 5 5 5 4 4 4 3 4 3 5 6 8 8 10 9 7 6 8 9
7 7 5 8 8 8 6 9 7 12 8 12 14 15 10 11 15 13 12 6 4 10 13 11 7 11 12 13 14 15 15 16 12 12 13 12 11 10 10 11 11 11 12 13 14 14 14 14 12 11 9 10 10 9 8 9 9 8 7 8 8 6 5 4 5 4 5 6 6 6 6 6 6 5 5 5 6 6 5 5 5 4 4 5 4 4 3 4 4 6 6 6 9 9 5 6 7
8 7 7 8 8 8 6 8 8 12 9 9 10 12 15 14 14 15 13 12 11 9 11 12 10 13 13 15 16 16 15 6 7 7 7 8 9 10 11 11 13 15 12 14 15 14 13 13 13 11 9 10 10 10 9 9 9 9 8 8 5 4 6 6 5 4 5 5 5 6 6 6 6 5 5 4 5 6 6 5 5 5 5 4 4 4 4 4 4 5 5 5 2 8 5 4 7
9 8 7 8 9 7 11 13 12 9 13 13 4 12 15 15 12 12 16 18 16 11 9 12 14 10 12 13 16 15 11 11 11 13 13 13 13 12 12 12 13 16 16 15 13 13 12 12 11 10 10 10 10 11 10 9 6 5 6 4 6 4 2 3 6 4 4 6 5 5 5 5 5 4 4 4 5 5 5 6 5 5 4 4 5 5 5 5 4 5 6 7 5 2 4 1 6
6 6 7 10 7 5 6 10 12 12 9 7 8 7 7 10 12 13 15 18 18 14 10 10 10 15 14 16 14 14 15 15 16 15 14 13 13 13 12 12 13 12 13 12 14 15 12 11 10 11 11 10 10 10 10 7 7 5 4 6 5 5 4 3 4 5 4 5 5 3 3 4 4 5 4 4 4 4 5 6 5 5 4 3 6 6 5 5 4 5 6 6 7 5 2 1 0
8 8 8 8 9 10 8 7 9 12 11 10 6 8 6 9 14 14 13 14 15 18 13 8 9 10 11 16 16 18 20 19 18 16 15 14 14 15 16 15 14 15 15 16 15 14 11 13 11 11 11 10 10 10 10 8 8 6 7 7 7 7 5 5 5 4 4 5 5 4 4 3 4 5 5 5 4 5 3 3 4 3 3 3 4 5 5 5 4 3 6 7 6 7 4 2 0
7 8 9 9 9 12 9 12 12 4 7 7 9 6 13 10 16 19 14 8 12 15 19 16 13 10 5 9 15 15 17 20 21 20 19 19 19 16 13 14 16 15 15 15 14 14 12 11 11 9 9 10 11 11 10 9 9 9 9 9 9 7 8 8 9 9 7 7 7 4 3 3 4 4 4 4 3 3 3 3 3 4 5 5 5 5 5 5 4 4 3 6 5 4 7 4 2
6 5 6 10 11 12 12 17 8 7 8 5 4 12 7 2 10 12 12 17 17 13 16 18 16 12 8 10 14 14 15 14 16 19 19 19 16 16 16 16 16 15 14 13 13 13 12 12 11 11 11 10 10 10 10 9 9 9 11 10 8 9 9 3 3 5 7 5 5 5 4 3 3 4 4 3 3 3 3 3 4 5 5 5 5 6 5 5 5 3 3 5 5 6 6 5 6
9 4 5 6 11 12 15 18 11 9 7 15 15 9 9 4 11 11 13 14 16 16 19 21 18 14 10 9 12 16 18 18 16 16 18 20 21 21 20 19 16 17 15 14 13 12 14 13 13 12 10 10 9 9 10 10 10 9 9 7 7 7 7 7 6 6 4 6 6 5 4 3 3 3 4 3 3 3 4 4 5 5 6 4 5 5 6 5 5 4 3 5 5 5 7 9 5
6 6 9 11 10 10 13 13 10 8 6 11 13 10 8 12 6 7 15 16 19 21 21 21 20 18 13 10 13 17 19 18 18 18 19 19 20 20 18 18 16 15 15 15 15 14 14 13 12 10 11 11 10 11 10 9 9 9 8 8 8 5 6 7 5 5 6 5 7 4 5 4 3 3 3 4 4 5 5 5 5 5 5 5 5 5 4 4 5 6 6 6 6 4 4 4 5
7 9 6 6 8 10 11 10 9 7 5 13 16 9 6 8 3 6 12 20 21 21 22 19 19 17 16 11 13 17 17 18 19 22 21 20 19 19 18 17 17 17 15 14 14 13 12 11 11 12 12 11 11 10 9 9 9 9 8 9 10 7 6 6 6 6 6 6 6 5 5 5 5 4 4 4 5 5 5 5 5 5 5 5 5 5 5 5 4 5 5 6 6 7 3 5 6
4 5 9 10 11 10 9 7 5 4 9 16 19 14 8 6 6 14 13 17 17 14 12 12 12 15 16 12 14 16 17 18 18 19 19 18 16 16 16 17 17 13 12 13 13 14 12 12 12 13 13 11 10 10 10 10 8 9 9 10 11 11 9 10 8 7 6 6 7 6 5 5 5 5 5 5 5 5 5 5 5 5 4 4 5 5 5 5 5 6 5 5 6 7 6 7 6
3 4 5 4 9 8 7 6 5 6 11 17 19 15 10 9 9 11 13 7 12 16 17 16 14 15 17 12 14 17 18 18 19 18 16 13 13 13 13 15 15 15 13 13 12 12 12 11 12 13 11 11 11 9 10 10 9 10 9 11 11 11 12 10 11 11 9 9 8 7 5 5 5 5 5 6 5 5 6 5 5 5 5 5 5 5 4 4 5 5 5 5 5 5 6 7 6
4 5 6 6 3 3 4 5 7 10 16 10 14 13 8 20 11 5 8 12 15 17 16 18 17 18 17 14 18 18 18 19 19 18 16 16 17 18 17 16 14 15 15 15 15 14 12 11 13 14 12 11 12 10 10 10 10 10 10 11 11 10 11 11 11 10 9 9 8 8 7 6 6 6 5 6 4 5 6 6 5 5 5 5 7 6 5 4 5 6 6 6 5 5 6 7 7
6 7 7 8 8 5 6 6 4 11 10 11 10 3 13 9 4 13 13 14 18 18 18 17 20 21 18 14 16 17 19 20 19 18 18 18 18 18 19 18 16 15 15 15 15 14 12 12 13 14 13 11 10 10 10 11 10 10 10 10 10 10 10 10 9 10 9 8 8 8 7 7 6 6 6 6 5 5 5 5 6 5 5 5 6 5 5 4 5 6 6 7 6 5 6 7 8
10 8 8 8 7 5 8 8 15 13 4 11 14 6 4 4 7 9 13 13 14 17 18 19 21 19 16 16 17 19 19 18 18 18 18 19 19 19 17 17 16 15 16 15 14 14 12 12 13 13 12 12 12 11 9 11 10 10 9 9 10 9 9 9 8 8 9 9 7 7 6 6 6 5 6 5 4 5 5 6 6 6 5 5 5 6 4 4 5 6 7 7 6 6 7 7 6
6 5 7 10 13 5 3 4 3 1 4 8 7 8 4 9 5 8 14 15 15 18 20 20 20 15 13 13 16 17 17 18 17 18 18 19 19 18 16 16 15 15 16 14 15 14 13 13 12 13 13 11 11 10 10 11 10 9 9 10 10 9 8 7 7 6 6 7 7 7 7 6 5 6 5 5 4 6 6 6 6 7 5 6 5 7 5 5 5 7 6 7 7 5 8 8 6
9 6 10 13 10 10 6 8 4 5 4 10 3 4 10 12 5 12 14 20 22 19 18 19 18 13 14 15 16 17 18 19 18 18 17 19 17 17 18 18 15 14 15 15 16 16 15 13 13 13 12 10 11 11 10 10 10 10 9 10 9 9 10 10 10 9 8 7 7 6 6 6 6 6 6 5 6 4 5 6 7 7 6 6 6 6 6 5 5 6 6 7 7 7 8 6 6
2 10 12 10 8 8 5 3 2 5 6 7 4 6 3 7 9 7 20 22 22 20 18 18 15 14 16 16 17 18 20 20 21 20 19 21 20 20 17 15 16 18 18 16 16 13 13 13 13 13 12 13 11 11 11 10 11 11 10 9 9 10 9 9 9 10 8 8 7 6 6 6 6 6 6 5 6 6 6 5 7 7 5 6 6 6 7 6 6 6 6 6 6 7 7 5 5
12 8 2 3 7 11 5 3 9 4 7 2 4 6 8 10 10 4 11 18 20 17 16 14 14 15 18 18 20 20 21 19 18 18 17 18 18 18 17 16 15 15 16 17 16 13 12 11 12 12 12 11 10 9 9 8 10 8 8 9 10 9 8 8 8 8 8 9 9 8 7 6 6 6 7 7 6 6 6 6 6 7 5 6 5 6 6 6 6 7 6 6 6 7 7 6 4
20 13 10 5 1 4 3 8 10 6 3 4 7 6 8 8 9 9 15 14 13 13 11 14 16 17 17 18 17 18 17 17 18 18 18 19 18 18 18 17 16 15 14 12 12 12 13 12 12 11 11 11 11 11 10 11 9 9 8 8 8 8 9 9 9 10 9 9 9 9 8 7 7 6 6 6 6 6 6 7 5 6 6 5 5 4 5 6 6 6 6 7 6 7 7 6 5
13 11 10 6 4 4 6 4 9 6 3 5 5 6 5 7 7 12 15 15 16 13 12 12 14 17 19 20 19 18 19 18 18 18 18 18 17 16 15 15 15 14 13 12 13 14 14 12 13 13 14 14 13 12 11 11 9 9 11 10 10 9 9 8 9 8 8 8 7 8 7 7 6 6 7 7 7 7 6 8 7 7 7 6 6 5 4 5 6 7 6 7 6 7 7 4 5
8 9 10 9 9 7 3 7 3 6 6 4 4 8 7 8 5 11 15 16 17 13 16 13 13 18 19 19 20 21 19 19 19 19 18 16 16 15 13 11 10 12 13 14 13 12 13 14 14 13 13 13 13 12 11 11 10 10 11 10 11 9 9 8 9 8 8 8 8 8 7 7 7 6 7 7 7 6 6 7 7 7 7 6 6 6 5 6 7 8 7 5 6 6 6 5 5
Wind_Direction
318 328 319 319 335 194 113 300 37 312 53 256 276 342 257 286 7 22 96 98 111 223 88 94 112 141 157 181 153 138 148 129 172 135 218 240 118 127 121 128 131 133 136 145 150 149 145 146 146 144 143 141 140 137 136 134 131 130 129 127 126 124 122 120 120 120 120 118 112 111 108 105 102 100 100 100 102 101 98 103 101 101 97 99 96 91 90 92 93 94 94 93 93 93 93 94 90
300 317 297 326 308 31 309 141 109 342 22 354 269 193 254 302 22 36 137 150 177 149 150 134 144 73 37 108 114 110 134 141 176 192 86 80 87 88 135 137 141 140 143 147 149 146 146 149 146 146 145 143 142 141 138 136 134 132 131 130 128 126 124 123 124 123 121 117 114 115 114 110 106 101 100 99 98 101 110 107 107 104 103 101 97 92 89 87 86 84 85 85 83 81 75 65 57
304 336 302 273 347 71 250 43 32 14 15 304 277 234 297 348 306 307 152 146 125 135 134 136 166 113 93 104 118 138 194 180 186 122 113 164 110 174 142 137 140 141 144 145 147 148 147 149 148 149 147 145 144 143 141 139 137 136 133 132 130 128 127 127 128 127 123 118 118 117 113 110 109 107 106 105 104 101 97 104 105 109 104 102 99 91 85 82 78 74 73 71 69 64 56 44 32
284 229 207 72 327 4 58 22 102 145 251 246 297 288 283 304 308 339 66 106 126 139 143 156 138 201 124 159 153 80 134 190 199 155 151 183 172 144 142 128 130 131 137 143 147 149 148 149 151 151 149 147 147 145 143 141 140 137 135 134 131 130 131 131 131 130 124 122 121 118 116 114 104 104 101 102 105 108 107 107 111 112 104 102 102 88 80 76 70 66 62 60 55 52 46 36 27
308 213 198 154 123 355 96 189 168 118 215 220 233 271 280 253 277 108 133 118 141 149 158 138 100 187 139 145 151 173 183 182 184 146 149 139 120 138 132 131 131 137 143 144 145 147 149 149 152 150 150 151 149 147 145 143 141 139 137 135 133 131 133 133 131 126 124 124 123 122 119 115 113 108 107 103 102 106 108 107 111 109 105 97 85 72 65 61 58 59 55 52 52 48 43 37 29
291 258 207 133 121 187 46 26 306 207 227 174 278 267 268 3 22 347 62 145 177 208 161 157 148 156 152 158 169 222 156 154 178 161 139 136 135 135 132 136 135 135 142 143 146 148 150 150 149 151 152 150 151 150 147 145 143 140 138 136 134 134 133 133 134 129 128 127 126 122 118 117 116 114 112 112 113 111 110 111 108 110 111 112 86 69 68 61 59 53 51 49 48 44 41 33 28
325 355 344 33 348 53 171 168 221 214 265 178 248 258 269 20 307 325 298 345 151 174 178 135 128 123 104 189 72 38 239 151 144 141 145 137 128 133 138 138 136 136 139 144 147 147 149 148 149 153 153 152 152 150 148 146 144 142 140 138 136 135 136 135 133 132 131 129 127 126 123 121 120 117 114 116 114 113 117 117 116 112 111 106 86 60 45 46 48 45 42 41 40 37 32 28 21
241 131 273 94 273 44 270 208 242 166 264 202 243 248 274 300 295 275 211 281 210 154 196 127 202 105 326 359 124 272 3 38 106 109 114 128 133 136 140 140 134 135 140 144 148 148 149 148 152 154 153 153 152 151 149 147 146 144 142 139 138 138 138 137 135 135 133 131 129 126 126 125 121 119 119 119 117 112 111 114 117 119 118 83 64 40 26 31 34 35 34 34 32 30 24 21 17
346 95 310 84 220 269 170 202 235 228 269 284 280 260 269 273 269 266 275 217 253 131 159 158 136 98 198 73 70 166 58 90 106 120 124 133 138 142 144 141 137 136 139 144 148 149 146 151 152 153 152 153 152 151 150 148 147 146 144 141 139 139 139 139 138 138 137 132 131 131 131 128 126 124 123 122 124 121 120 120 117 119 114 84 68 43 24 22 23 26 27 26 26 20 19 12 8
16 135 266 162 146 223 216 272 203 240 235 262 261 278 287 289 283 279 279 272 167 114 144 161 163 128 151 122 123 103 122 111 111 109 128 136 139 141 140 142 142 138 143 144 147 148 148 153 153 153 153 152 152 151 151 149 147 147 147 142 139 140 140 140 140 140 135 135 135 137 135 135 132 131 128 128 124 118 113 111 121 119 109 84 70 47 25 13 11 12 17 19 16 16 9 4 1
322 343 147 183 174 224 222 269 257 290 269 272 279 259 259 269 274 285 269 265 95 119 106 113 79 122 119 93 90 235 127 127 126 136 141 139 139 138 133 137 139 139 141 145 144 146 153 154 153 153 153 152 150 150 150 147 147 149 146 142 141 142 140 141 142 139 139 139 141 141 140 140 139 136 135 133 130 121 114 116 122 121 106 81 73 43 22 4 360 1 2 7 6 2 1 356 359
153 175 200 201 205 184 221 208 238 259 271 274 273 271 232 224 256 266 247 196 302 153 146 170 174 122 92 121 202 169 129 131 135 138 142 136 132 128 130 133 135 140 139 140 143 149 151 155 153 155 154 151 149 149 148 148 148 147 145 143 143 141 140 143 145 143 144 144 145 146 146 146 144 140 138 138 134 130 129 120 125 113 103 89 69 47 13 356 345 348 351 352 357 354 351 356 353
162 188 123 153 210 162 197 204 234 232 265 254 259 275 267 181 231 257 261 161 191 227 200 172 149 129 144 153 234 175 132 149 141 135 128 126 124 126 128 132 135 136 137 137 143 149 152 153 153 155 154 152 150 148 147 148 147 146 146 144 143 141 143 148 148 149 147 147 148 150 152 152 148 145 143 141 140 137 132 135 127 126 114 113 84 37 7 345 333 331 335 343 345 347 349 346 345
161 188 136 226 188 169 183 219 200 214 246 256 261 271 284 279 248 230 229 220 211 194 188 165 138 107 101 101 333 157 132 134 124 123 123 123 125 126 129 131 135 138 140 145 146 150 153 153 152 151 155 148 150 151 151 150 149 149 147 146 145 145 148 150 151 152 150 150 152 155 156 154 153 149 148 147 147 140 139 137 142 136 138 117 104 59 358 318 320 318 322 333 341 341 343 341 338
196 194 117 154 199 186 200 201 206 217 245 246 258 264 278 275 247 293 280 242 247 264 142 143 134 126 195 147 230 186 160 133 122 119 116 116 120 124 127 131 133 136 141 147 149 152 156 152 151 151 147 145 147 144 153 154 153 152 151 149 148 150 152 153 154 154 152 154 156 159 160 160 158 156 153 153 150 147 146 147 138 145 139 138 97 55 317 311 311 314 324 333 336 338 342 335 332
193 146 163 184 220 193 225 199 200 214 242 237 254 266 278 276 272 259 270 247 252 115 136 323 197 171 178 166 173 166 150 136 128 119 114 114 116 117 123 128 131 138 144 148 153 157 155 153 150 149 148 147 145 146 153 153 156 156 153 152 154 155 157 157 157 158 159 160 162 166 164 164 165 161 161 160 161 158 158 153 159 146 151 157 188 284 279 301 305 313 321 329 330 331 327 324 319
354 117 212 200 224 207 184 197 168 227 232 254 266 273 265 275 281 264 245 250 272 165 191 163 182 117 167 204 152 144 144 127 121 120 119 123 125 125 125 130 135 138 146 155 156 158 157 152 148 149 153 150 144 148 151 154 159 159 158 157 159 160 160 161 161 164 164 166 169 170 164 144 144 160 162 159 169 162 165 169 171 177 170 198 241 268 286 290 303 313 317 313 315 313 316 311 307
141 206 188 223 211 212 178 199 186 171 232 241 257 253 264 275 293 299 338 275 245 246 148 33 41 22 152 105 134 138 139 129 132 128 131 133 137 135 144 149 151 155 155 157 163 158 154 155 154 153 152 152 148 149 152 156 164 158 158 161 161 164 163 165 167 171 170 173 171 163 134 147 142 140 155 174 155 171 178 183 183 188 185 216 254 274 294 305 315 319 315 314 310 310 307 306 300
182 194 203 222 202 215 161 196 206 204 232 255 262 267 259 265 273 300 289 311 352 92 24 113 83 80 86 124 136 145 142 138 141 140 145 149 153 153 153 155 159 153 159 160 162 164 160 155 158 157 154 150 152 153 152 160 156 150 157 161 161 164 171 167 169 176 154 165 149 141 152 150 156 163 168 183 170 182 193 199 199 190 196 220 256 277 294 306 310 304 305 301 295 295 294 292 294
225 188 214 227 199 208 198 180 204 207 215 250 267 270 264 262 269 176 255 316 24 46 118 68 117 127 133 142 150 152 153 154 150 151 155 156 156 152 154 159 162 165 160 162 158 162 160 160 160 157 154 153 154 156 155 158 154 154 161 160 162 166 172 158 171 162 165 168 158 153 158 170 167 166 195 194 191 190 209 211 207 203 206 228 252 286 305 307 295 293 288 287 289 288 288 277 284
213 205 216 218 201 198 215 194 207 216 198 242 256 275 279 262 262 289 318 307 276 189 176 157 156 148 155 155 164 161 162 149 134 138 147 155 158 157 162 164 163 161 159 152 154 162 164 163 159 160 155 152 155 158 160 160 156 159 162 159 160 162 153 155 167 169 179 178 164 169 171 179 170 173 204 228 155 175 207 225 223 188 192 308 307 318 309 287 298 293 292 287 284 277 276 274 270
318 224 226 212 189 222 195 208 212 208 222 231 248 257 264 275 288 280 288 246 258 183 223 181 162 159 164 168 161 149 150 145 145 154 160 158 158 153 142 133 139 146 155 157 161 159 166 166 164 164 158 157 159 162 163 162 160 166 164 162 158 160 159 168 177 183 189 188 178 175 173 181 183 182 189 195 176 173 190 203 208 181 192 227 16 331 319 308 298 292 288 286 277 274 268 275 267
244 269 239 222 215 203 196 218 217 209 223 227 240 245 264 275 283 268 277 273 228 246 165 211 165 168 162 146 141 149 155 158 160 162 161 163 161 156 155 157 157 162 162 159 160 163 164 165 166 161 161 161 162 162 163 162 168 171 166 161 163 173 169 171 191 200 192 193 184 172 174 190 196 182 184 184 183 181 190 201 200 186 198 208 184 184 268 282 289 300 304 280 277 285 276 274 272
242 246 254 242 215 227 240 228 209 215 220 232 237 257 253 270 266 266 223 269 290 4 153 173 190 147 138 145 153 157 164 165 171 171 171 167 166 164 159 160 162 153 156 160 162 161 164 169 166 161 164 165 164 163 164 168 170 167 165 167 175 179 171 184 202 197 191 198 188 184 187 189 184 182 183 179 184 180 197 198 197 194 197 209 182 175 233 326 322 311 296 282 270 268 273 260 284
245 249 249 265 246 233 240 251 255 252 242 237 238 246 248 249 254 272 246 236 275 57 105 125 152 152 159 156 163 158 155 160 168 172 171 171 165 153 149 152 155 155 157 163 161 159 170 168 164 168 167 168 165 164 169 170 167 167 166 176 181 184 181 197 197 191 194 203 200 190 186 179 175 179 177 183 165 186 191 191 189 191 191 183 133 82 100 68 343 303 283 285 284 276 288 297 305
246 263 271 258 255 248 223 235 247 247 249 227 251 246 247 249 264 265 263 247 239 128 120 142 150 161 168 165 159 161 165 175 170 168 175 170 163 155 162 157 159 163 163 161 159 164 169 165 167 171 171 169 165 166 173 169 167 169 178 182 185 187 189 201 195 190 199 198 204 200 190 172 175 176 182 179 181 192 185 175 157 173 174 173 151 149 139 156 173 269 273 265 272 277 302 358 70
334 323 314 317 296 267 224 221 229 241 241 233 228 244 253 264 269 264 255 248 216 137 144 150 165 169 173 177 173 175 171 169 173 168 160 166 169 164 170 155 166 164 156 162 164 162 169 164 171 173 172 169 165 172 173 171 169 176 180 182 181 193 189 192 196 197 193 200 200 195 186 180 175 168 177 177 153 176 171 163 165 161 135 132 134 112 118 241 153 230 269 269 278 330 6 111 101
332 324 325 309 275 269 271 246 226 221 243 236 228 244 259 261 262 252 256 254 188 145 153 159 167 177 184 181 179 188 181 174 158 159 166 168 176 171 173 165 167 162 162 163 164 159 164 170 172 173 173 169 169 172 170 173 177 176 177 179 188 191 180 190 192 191 193 195 188 183 175 179 181 106 143 166 181 162 142 142 148 139 143 164 154 141 155 190 168 248 258 261 271 106 93 85 89
335 334 333 303 298 288 250 249 237 213 231 231 228 256 252 245 238 245 257 254 256 147 169 168 168 179 182 186 183 177 190 175 167 170 181 180 176 175 172 168 162 162 163 158 159 158 165 171 172 174 171 171 172 170 173 176 179 173 172 183 189 183 187 186 193 190 188 183 176 169 170 186 135 136 163 157 126 130 147 150 171 160 159 156 192 201 174 174 145 197 205 22 46 76 90 85 83
323 6 216 298 298 276 258 251 259 227 224 212 205 243 236 235 238 241 249 257 269 206 171 186 193 178 179 174 178 187 208 189 176 183 182 178 179 178 171 166 160 156 156 157 155 160 164 170 173 168 172 171 172 171 173 176 177 173 176 179 184 184 190 187 194 190 180 174 172 174 175 161 137 163 144 128 146 144 156 160 145 141 169 162 190 208 191 151 183 104 78 71 61 88 95 98 93
217 261 314 210 238 243 243 209 229 243 194 195 181 235 238 235 238 237 240 257 258 256 173 176 181 189 181 177 177 183 193 195 184 177 177 178 174 179 173 160 154 147 148 156 159 160 162 168 167 169 171 168 172 172 173 175 172 173 172 176 179 185 187 188 191 181 175 176 173 181 159 146 163 143 154 150 144 148 148 138 155 171 172 169 184 211 224 221 137 96 95 80 80 81 83 92 98
283 325 234 219 218 271 300 251 215 227 217 191 181 236 234 229 237 237 226 226 250 250 235 148 176 183 181 179 181 184 190 195 179 168 173 179 173 173 167 165 153 151 154 156 155 156 161 167 165 169 162 166 169 170 172 169 169 172 166 171 179 182 181 183 184 176 175 171 172 169 162 156 142 155 158 147 142 153 153 159 176 178 178 165 176 185 202 179 97 94 86 100 97 93 103 90 95
278 210 258 227 212 237 287 255 230 224 230 219 200 232 229 236 231 239 212 208 235 248 254 161 175 177 177 185 184 187 172 173 177 177 182 183 180 171 165 164 164 157 153 156 156 157 160 166 165 163 160 162 164 167 165 165 162 167 167 169 177 178 175 175 176 165 163 163 168 164 165 143 152 155 156 151 144 157 159 161 173 176 172 149 131 273 239 191 115 99 73 73 106 119 107 105 96
281 223 229 295 242 184 236 309 261 206 208 230 222 228 222 279 193 208 226 220 231 241 249 230 162 184 183 178 179 181 180 173 181 184 189 188 183 173 162 163 159 155 155 156 157 158 159 164 164 158 158 157 159 161 162 160 160 162 168 169 175 175 176 170 168 160 158 160 160 158 151 140 148 159 152 149 147 153 150 157 154 171 155 146 151 186 244 125 112 104 88 70 104 116 114 112 107
219 212 12 304 270 252 246 210 233 215 218 232 236 234 230 244 279 210 195 215 235 232 237 248 158 174 180 172 174 182 183 182 189 187 183 184 179 170 160 159 157 156 158 156 156 154 153 159 158 151 153 154 153 153 153 152 152 158 166 169 174 172 167 172 156 149 152 147 151 154 147 142 153 157 151 151 144 145 130 132 147 165 151 143 122 136 141 119 109 102 103 88 71 85 114 111 110
212 233 210 229 223 237 237 241 259 222 226 233 232 235 224 227 247 259 260 221 219 239 231 240 164 178 175 174 179 182 185 191 191 176 176 180 175 168 161 157 156 155 155 156 156 156 155 156 155 146 154 153 149 147 148 150 154 161 169 173 173 174 169 142 137 154 149 148 152 149 150 150 153 161 166 157 144 136 139 149 160 168 157 130 135 126 136 135 126 114 112 108 100 82 76 112 114
316 307 270 255 259 260 249 254 240 243 251 235 237 240 231 227 225 234 244 232 249 239 245 228 186 179 178 176 180 183 187 190 181 174 177 178 167 160 151 149 149 150 155 158 157 161 160 159 157 156 156 152 150 152 159 160 165 170 172 178 176 175 150 137 147 161 153 151 148 149 154 155 156 160 163 152 142 146 150 155 154 156 150 144 146 141 136 118 118 124 121 110 114 106 93 115 123
270 281 286 282 268 266 259 249 234 244 240 252 228 235 235 226 228 224 236 249 228 229 230 238 211 176 182 182 180 183 189 170 148 142 169 164 156 153 153 154 152 153 166 163 165 164 163 160 161 156 154 155 156 160 163 171 178 180 171 174 156 125 135 148 157 172 149 142 144 152 159 159 156 157 159 152 148 150 155 159 158 160 156 139 129 130 117 103 98 112 124 85 45 122 126 157 163
247 244 263 276 266 283 290 287 282 250 237 248 230 219 229 228 225 222 222 231 238 218 212 223 230 179 190 190 184 178 166 165 167 174 175 170 159 156 159 164 167 164 163 164 161 161 164 163 165 156 156 155 161 162 163 173 174 160 155 160 134 107 76 146 149 143 140 139 145 156 156 153 143 144 157 155 152 161 160 156 163 164 152 137 123 120 115 103 108 128 134 126 105 53 104 137 201
248 237 238 244 262 258 270 262 268 264 249 249 239 238 240 231 228 225 220 220 234 234 206 223 221 222 185 192 182 172 169 166 171 172 176 171 162 159 160 165 165 158 160 162 166 168 167 169 165 160 156 154 161 168 167 162 155 150 133 118 109 115 147 111 106 115 121 123 139 153 138 138 143 150 158 156 153 157 162 164 160 165 155 144 138 131 117 109 107 115 124 131 129 120 94 113 344
243 242 240 245 250 251 249 294 298 309 287 247 255 253 254 218 221 224 223 223 224 238 229 214 229 230 208 182 183 175 170 171 172 174 174 164 163 168 171 169 164 166 169 170 170 170 172 171 163 161 155 157 162 170 165 147 135 119 100 92 95 90 80 108 119 121 138 139 132 146 161 151 154 154 157 160 161 159 165 162 157 145 124 124 120 116 113 119 112 119 141 139 148 142 153 148 28
257 246 240 246 250 263 270 271 274 300 304 251 213 238 240 221 222 218 212 219 227 229 233 223 220 219 187 157 185 184 176 172 170 172 172 174 174 169 165 168 172 172 172 174 170 169 165 159 154 159 155 159 168 171 160 149 154 148 143 141 150 152 158 163 165 156 156 161 167 154 143 155 152 149 155 160 155 154 153 137 123 116 112 113 114 112 117 105 97 99 147 149 134 150 140 125 124
236 237 222 247 254 254 260 262 263 261 242 293 230 234 261 297 224 220 210 212 219 225 233 235 224 217 199 169 175 176 177 183 179 172 173 171 171 167 171 174 176 172 174 168 168 166 161 154 157 164 164 164 167 168 160 154 152 160 167 170 166 168 158 144 134 154 151 147 139 149 151 150 153 150 158 154 157 141 117 117 114 107 107 109 112 111 105 108 106 108 121 121 141 134 125 127 153
239 250 243 244 240 244 247 254 250 265 318 306 296 262 245 249 229 206 206 214 219 222 226 232 230 217 196 183 177 177 181 177 174 178 176 175 173 173 175 178 176 177 170 167 165 164 162 159 164 170 165 165 171 164 170 164 159 165 165 159 156 154 157 156 157 151 135 135 137 143 142 155 151 148 149 144 128 118 122 111 108 106 106 108 107 105 115 118 105 88 95 114 114 128 141 143 159
232 218 235 253 256 249 250 253 254 259 303 278 283 277 254 231 244 197 194 213 217 217 218 220 225 227 212 187 188 182 180 174 172 176 182 180 179 179 173 174 177 169 168 168 167 167 165 162 163 162 163 165 177 172 167 167 162 167 161 148 146 148 145 147 144 139 134 135 128 129 137 143 137 131 122 118 115 119 119 119 112 110 109 109 109 107 105 109 113 117 114 110 115 107 118 128 121
228 241 254 269 270 272 260 250 242 245 237 261 256 251 251 257 200 204 205 209 212 215 213 212 215 214 222 200 186 183 178 174 177 179 182 183 180 177 175 171 170 175 171 166 161 161 163 157 159 164 169 174 176 169 164 167 164 156 152 157 149 146 143 137 143 141 136 136 130 129 130 133 138 121 104 110 107 108 112 112 111 111 114 112 106 113 112 104 103 103 114 120 119 107 93 104 117
296 226 229 246 261 263 274 259 215 224 243 244 251 249 229 282 238 204 199 212 205 205 213 214 217 219 218 196 180 182 177 176 177 183 184 180 176 171 167 173 175 166 165 161 161 164 160 160 163 170 176 174 173 165 166 170 163 162 161 160 156 152 154 148 147 144 141 137 137 138 136 135 129 124 114 103 108 111 105 105 109 108 103 103 104 104 108 113 107 107 108 105 109 116 114 106 98
294 242 215 235 259 266 264 262 173 207 244 242 244 244 225 239 241 240 217 189 200 200 204 206 207 216 218 195 184 182 177 176 177 177 175 167 162 170 172 171 169 166 160 162 163 163 160 161 166 171 175 176 176 166 165 169 165 167 160 159 160 159 157 160 159 158 161 155 151 145 141 123 116 113 113 112 110 111 110 105 105 106 108 106 94 84 95 105 111 107 101 102 101 102 110 104 103
246 252 228 195 234 180 246 197 205 209 228 228 236 235 259 240 237 249 240 203 200 201 203 201 206 213 213 189 184 180 177 174 174 173 168 167 170 170 175 174 167 165 166 166 167 166 162 162 170 172 179 177 179 171 168 166 166 166 162 161 160 162 163 162 162 160 163 158 156 149 150 141 133 122 130 122 125 121 118 114 115 115 107 101 113 122 116 110 110 104 105 102 104 106 112 112 106
222 230 207 196 207 206 215 193 219 237 240 250 247 217 252 278 269 208 211 210 199 195 199 202 208 212 205 186 182 178 177 173 173 171 169 171 173 173 173 171 172 168 166 168 169 167 166 168 174 176 176 176 176 175 167 164 169 163 161 160 161 162 163 162 163 161 163 159 158 157 154 149 143 142 142 138 141 124 112 120 119 111 107 117 116 112 107 112 113 110 108 105 101 103 101 99 102
221 228 220 214 220 198 193 186 203 216 190 237 230 227 220 165 230 200 201 199 200 195 197 202 212 209 196 183 179 176 175 173 169 168 171 172 173 172 172 174 171 168 167 169 171 171 167 169 175 176 172 178 177 176 162 164 164 160 158 158 158 162 160 162 163 163 158 155 156 148 143 135 133 141 138 137 129 121 122 121 120 113 119 112 111 99 101 106 103 101 101 103 98 102 99 101 100
250 232 235 235 221 248 253 206 245 184 199 250 223 212 203 221 214 206 195 188 205 200 199 201 209 206 184 175 175 173 170 168 169 170 171 172 170 171 172 173 172 169 170 171 172 169 172 174 173 176 175 174 174 168 165 162 159 155 154 155 159 158 155 150 146 148 150 151 148 146 142 132 128 129 130 127 133 130 131 122 109 116 118 117 118 123 118 109 109 105 104 105 102 101 101 98 105
206 208 224 228 224 232 272 303 246 148 163 253 199 223 247 291 306 200 200 197 196 199 202 204 205 191 166 176 174 170 169 169 169 170 170 170 171 174 175 173 170 169 169 175 176 176 174 167 166 171 172 170 172 166 159 158 151 153 158 155 153 154 156 157 157 156 151 142 137 136 135 128 125 131 134 133 130 129 113 120 124 118 115 122 121 114 111 113 104 100 108 107 105 99 97 103 106
165 206 220 245 248 253 226 245 276 193 192 246 208 220 234 196 252 239 191 195 203 199 200 200 198 171 168 176 173 171 171 171 170 170 169 170 173 177 177 174 171 170 174 176 177 174 167 166 169 166 166 171 170 157 157 155 153 155 157 158 156 156 156 153 150 149 145 138 135 130 125 130 142 144 137 137 132 129 134 130 121 121 129 123 132 128 123 118 108 103 103 101 107 103 101 96 99
220 210 116 208 177 221 233 275 276 229 214 274 276 193 223 199 242 218 219 202 199 203 203 199 193 173 173 176 175 173 169 165 165 165 169 174 176 175 172 172 174 175 177 176 171 163 162 164 169 165 165 164 156 150 149 147 151 157 160 157 154 150 148 147 144 141 144 144 146 145 145 140 134 140 137 136 133 131 126 123 120 124 127 128 125 120 122 117 119 116 110 108 101 104 108 111 114
213 230 246 174 200 282 214 203 243 269 236 204 288 213 223 204 215 200 204 212 208 199 198 199 189 176 176 175 171 167 164 164 166 169 173 176 177 175 173 170 168 172 173 171 165 162 163 165 164 162 155 156 154 154 155 154 155 149 147 144 148 147 148 148 148 147 150 151 151 149 145 144 149 143 139 136 137 138 136 120 125 125 124 121 116 118 121 124 117 112 116 110 109 110 113 117 115
197 205 223 212 235 203 195 254 230 220 198 204 212 244 262 240 208 192 201 204 212 194 194 197 185 176 175 174 167 166 167 167 169 171 174 174 172 173 175 171 170 168 165 161 165 169 167 163 167 165 165 165 160 159 161 155 148 147 146 153 152 150 148 145 145 147 145 147 146 147 151 143 136 146 143 140 142 143 137 134 143 135 134 137 128 131 139 131 122 118 111 114 112 113 117 118 114
184 197 216 204 207 238 228 265 235 238 263 244 196 244 262 252 181 197 194 199 205 191 179 187 179 173 175 173 169 166 167 169 169 173 170 167 169 172 167 159 159 161 163 166 169 164 165 171 171 167 164 167 160 162 162 155 150 149 153 152 151 149 147 146 144 144 142 143 148 152 148 142 147 149 146 143 143 143 140 140 139 138 137 136 135 144 146 134 129 123 119 117 119 118 118 122 116